Location: Schommer Observatory
(40.5200°N, 74.4500°W)
Time: 20:17:03
(UTC-04:00)

ISS - Pass Details

Date: 19 May 2018
Orbit: 402 x 407 km, 51.6° (Epoch: 26 May)

Event Time Altitude Azimuth Distance (km) Brightness Sun altitude
Exits shadow 01:07:52 14° 353° (N) 1,247 -0.6 -29.6°
Drops below altitude 10° 01:09:27 10° 22° (NNE) 1,458 -0.2 -29.6°
Sets 01:12:18 0° 50° (NE) 2,318 0.6 -29.6°
